TimePST,TemperatureF,Dew PointF,Humidity,Sea Level PressureIn,VisibilityMPH,Wind Direction,Wind SpeedMPH,Gust SpeedMPH,PrecipitationIn,Events,Conditions,WindDirDegrees,DateUTC
12:00 AM,40.5,38.8,94,30.08,-9999.0,SE,2.3,-,N/A,,Unknown,130,2013-01-24 08:00:00
1:00 AM,39.2,37.9,95,30.11,-9999.0,East,2.3,-,N/A,,Unknown,100,2013-01-24 09:00:00
2:00 AM,38.5,37.4,96,30.14,-9999.0,East,2.3,-,N/A,,Unknown,80,2013-01-24 10:00:00
3:00 AM,37.9,37.0,97,30.15,-9999.0,ESE,2.3,-,N/A,,Unknown,120,2013-01-24 11:00:00
4:00 AM,39,38,92,30.16,,East,4.6,,,,,90,2013-01-24 12:00:00
4:00 AM,38.7,37.6,96,30.16,-9999.0,East,4.6,-,N/A,,Unknown,90,2013-01-24 12:00:00
5:00 AM,38.8,37.8,96,30.17,-9999.0,ENE,3.5,-,N/A,,Unknown,70,2013-01-24 13:00:00
6:00 AM,39.2,37.9,95,30.19,-9999.0,ENE,3.5,-,0.02,,Unknown,70,2013-01-24 14:00:00
7:00 AM,39.6,37.9,94,30.18,-9999.0,East,4.6,-,N/A,,Unknown,80,2013-01-24 15:00:00
8:00 AM,38.7,36.7,93,30.19,-9999.0,East,3.5,-,N/A,,Unknown,100,2013-01-24 16:00:00
9:00 AM,39.9,38.1,93,30.18,-9999.0,North,2.3,-,N/A,,Unknown,10,2013-01-24 17:00:00
10:00 AM,41,38,87,30.19,,NE,3.5,,,,,40,2013-01-24 18:00:00
10:00 AM,41.2,38.5,90,30.19,-9999.0,NE,3.5,-,N/A,,Unknown,40,2013-01-24 18:00:00
11:00 AM,42.1,39.0,89,30.19,-9999.0,NNE,5.8,-,N/A,,Unknown,20,2013-01-24 19:00:00
12:00 PM,42.8,39.2,87,30.16,-9999.0,NNE,5.8,-,N/A,,Unknown,30,2013-01-24 20:00:00
1:00 PM,44.1,38.1,80,30.12,-9999.0,NNE,4.6,-,N/A,,Unknown,30,2013-01-24 21:00:00
2:00 PM,42.6,37.9,83,30.09,-9999.0,NNE,4.6,-,N/A,,Unknown,30,2013-01-24 22:00:00
3:00 PM,42.6,37.9,83,30.07,-9999.0,NNE,3.5,-,N/A,,Unknown,20,2013-01-24 23:00:00
4:00 PM,42,38,80,30.09,,NNE,6.9,,,,,20,2013-01-25 00:00:00
4:00 PM,41.5,37.9,87,30.09,-9999.0,NNE,6.9,-,N/A,,Unknown,20,2013-01-25 00:00:00
5:00 PM,40.8,37.8,89,30.10,-9999.0,East,2.3,-,0.03,,Unknown,80,2013-01-25 01:00:00
6:00 PM,40.3,38.1,92,30.10,-9999.0,NE,5.8,-,0.06,,Unknown,40,2013-01-25 02:00:00
7:00 PM,39.0,36.9,92,30.08,-9999.0,NNE,6.9,-,0.05,,Unknown,30,2013-01-25 03:00:00
8:00 PM,38.8,36.9,93,30.05,-9999.0,NNE,8.1,-,0.05,,Unknown,20,2013-01-25 04:00:00
9:00 PM,38.1,36.0,92,30.04,-9999.0,NNE,9.2,-,0.03,,Unknown,30,2013-01-25 05:00:00
10:00 PM,38,36,91,30.04,,NNE,10.4,,,,,30,2013-01-25 06:00:00
10:00 PM,38.1,36.3,93,30.04,-9999.0,NNE,10.4,-,0.03,,Unknown,30,2013-01-25 06:00:00
11:00 PM,38.1,36.5,94,30.02,-9999.0,NNE,9.2,-,0.04,,Unknown,30,2013-01-25 07:00:00